Weather in Karasuk

Russia / Novosibirsk Oblast     53°44′03″N   78°02′32″E
temp.,
°C
wind,
m/s
gust,
m/s
humid.,
%
clouds,
%
prec.,
mm/h
press.,
hPa
HPBL,
m
20 january, thu
thu2001:00−21sw2210050 0.0 103030
04:00−19wsw349852 0.0 103151
07:00−22sw2210013 0.0 103223
10:00−21sw2210011 0.0 103332
13:00−15sw35925 0.0 1034108
16:00−13sw24915 0.0 103493
19:00−19ssw22985 0.0 103511
22:00−21ssw229957 0.0 103513
21 january, fri
fri2101:00−22s2210085 0.0 10359
04:00−22s2210041 0.0 103510
07:00−23sse2210023 0.0 10349
10:00−23ese2210014 0.0 103415
13:00−15ese12915 0.0 103362
16:00−14e22915 0.0 103236
19:00−19ne22985 0.0 103311
22:00−21ene22995 0.0 103313
22 january, sat
sat2201:00−22ene2210049 0.0 103310
04:00−22ne2210044 0.0 103416
07:00−23ne2210096 0.0 103415
10:00−21ene239944 0.0 103537
13:00−15ene23935 0.0 103579
16:00−13ne22935 0.0 103541
19:00−18ne22995 0.0 103626
22:00−20ene2210021 0.0 103718
23 january, sun
sun2301:00−21ene2210018 0.0 103723
04:00−20ene3410057 0.0 103745
07:00−21ene3310048 0.0 103837
10:00−21ene341005 0.0 103847
13:00−15ene35935 0.0 1038117
16:00−13ene24925 0.0 1037102
19:00−19ne33985 0.0 103838
22:00−19ene35975 0.0 103948
24 january, mon
mon2401:00−20ene35975 0.0 103952
04:00−21ne34985 0.0 103940
07:00−20ne35975 0.0 103957
10:00−20ne36955 0.0 104068
13:00−14ene37905 0.0 1040148
16:00−12ne36925 0.0 1039132
19:00−16ne47875 0.0 104076
22:00−18ne36906 0.0 104165